View from above orbital plane
|
View from above satellite
|
Ground track
|
The orbit data is extracted from the following two-line orbital elements,
1 23087U 94023A 21018.75866726 -.00000231 00000-0 -97098-4 0 9992
2 23087 71.0550 137.6276 0008971 354.8388 5.2641 14.13823188379877
Epoch (UTC): | 18 January 2021 18:12:28 |
Eccentricity: | 0.0008971 |
inclination: | 71.0550° |
perigee height: | 840 km |
apogee height: | 853 km |
right ascension of ascending node: | 137.6276° |
argument of perigee: | 354.8388° |
revolutions per day: | 14.13823188 |
mean anomaly at epoch: | 5.2641° |
orbit number at epoch: | 37987 |
The dashed part of the orbit path shows where the satellite is in the earth's shadow,
|
|